FENGYUN 1C DEB, 30086

Orbit data source: Space-Track

FENGYUN 1C DEB, 30086 is space debris in SSO originally from a launch on Mon, 10 May 1999 UTC launched from the Taiyaun Space Center, China (TSC). Fengyun 1C debris stems from the Chinese weather satellite Fengyun-1C, which was intentionally destroyed by a Chinese anti-satellite missile in 2007. This event dramatically increased the amount of space debris, with thousands of trackable fragments posing hazards to satellites and human spaceflight. The Fengyun 1C debris cloud has become a focal point in discussions about space sustainability and the need for international regulations to prevent the creation of new debris.

Loading next visibility...
Identifier
30086, 1999-025QP
Orbit
SSO
Country
Flag of CNCN / PRC
Related business
Manufacturer
Unknown
Mission
Spacecraft
Bus & Motor
Unknown
Mass
Unknown
Launch date (UTC)
1999-05-10 (27 years ago)
Launch vehicle
Unknown
Launch site
Taiyaun Space Center, China (TSC)
Object type
Payload
Rocket body
Debris
Shape & HBR
Unknown shape, 0.1 m
Radar Cross Section
Medium (>0.1 m² and <1 m²)

Expand to show TLE details & history
Last TLE update: 20 hours ago

TLE from 20 hours ago
0 FENGYUN 1C DEB
1 30086U 99025QP  26170.04260097  .00000342  00000-0  24021-3 0  9997
2 30086  98.8860 204.8004 0060273 330.1411  59.2046 14.04021436993380
Epoch: 2026-06-19T01:01Z
TLE epoch observation values (Epoch: 2026-06-19T01:01:20.723Z)
Latitude
29.59595°
Longitude
-82.88095°
Altitude
861.36 km
Speed
7.436 km/s
True Right ascension
13h 18m 55s
True Declination
29° 27' 02"
Sunlit
Object was in daylight at epoch
Visualization orbit readout
Latitude
Unknown
Longitude
Unknown
Altitude
Unknown
Speed
Unknown
Apparent Right ascension
Unknown
Apparent Declination
Unknown
Sunlit
N/A
Visualization observer readout
Local Sidereal Time
08:12:02
Azimuth
Unknown
Elevation
Unknown
Doppler factor
Unknown
Orbital elements
Apogee altitude
920.821 km
Perigee altitude
833.362 km
Semi-major axis
7,255.228 km
Eccentricity
0.00603
Inclination
98.886°
RAAN
204.8004°
Arg. of periapsis
330.1411°
True anomaly
59.80018°
Mean anomaly
59.2046°
Eccentric anomaly
59.50216°
Mean motion
3.5121 °/min
Orbital period
102.5 mins
BSTAR
0.00024021
Loading maneuver chart data...
Computing Atmospheric mass density...

Documentation

Showing up to 5 results
|